Weather History for Ord, NE

Change the Weather History Date:

Tuesday, February 18, 2014

  Actual Average Record
Temperature  
Mean Temperature 42 °F 28 °F  
Max Temperature 62 °F 41 °F 62 °F (2014)
Min Temperature 21 °F 16 °F -9 °F (2006)
Degree Days  
Heating Degree Days 23    
Month to date heating degree days 825  
Cooling Degree Days 0    
Month to date cooling degree days 0  
Year to date cooling degree days 0  
Moisture  
Dew Point 19 °F    
Average Humidity 40    
Maximum Humidity 63    
Minimum Humidity 17    
Precipitation  
Precipitation 0.00 in 0.01 in 1.35 in (1972)
Month to date precipitation 0.14 0.31  
Year to date precipitation 0.20 0.68  
Sea Level Pressure  
Sea Level Pressure 29.79 in    
Wind  
Wind Speed 12 mph (NW)    
Max Wind Speed 35 mph    
Max Gust Speed 41 mph    
Visibility 10 miles    
Events      
T = Trace of Precipitation, MM = Missing Value Source: NWS Daily Summary

Daily Weather History Graph

Daily Weather History Graph

Search for Another Location

Airport:

Trip Planner

Search our weather history database for the weather conditions in past years. The results will help you decide how hot, cold, wet, or windy it might be!

Date:

Astronomy

Feb. 18, 2014 Rise Set
Actual Time 7:26 AM CST 6:13 PM CST
Civil Twilight 6:58 AM CST 6:41 PM CST
Nautical Twilight 6:26 AM CST 7:13 PM CST
Astronomical Twilight 5:54 AM CST 7:45 PM CST
Moon 10:11 PM CST (2/18) 8:56 AM CST (2/18)
Length of Visible Light 11h 42m
Length of Day
10h 46m
Waning Gibbous, 87% of the Moon is Illuminated
Feb 18
Waning Gibbous
Feb 22
Last Quarter
Mar 1
New
Mar 8
First Quarter
Mar 16
Full

Hourly Weather History & Observations

Time (CST) Temp. Windchill Dew Point Humidity Pressure Visibility Wind Dir Wind Speed Gust Speed Precip Events Conditions
12:53 AM 36.0 °F 29.6 °F 18.0 °F 48% 29.74 in 10.0 mi SSW 8.1 mph - N/A   Clear
1:53 AM 32.0 °F 28.7 °F 16.0 °F 52% 29.71 in 10.0 mi SSW 3.5 mph - N/A   Clear
2:53 AM 36.0 °F - 16.0 °F 44% 29.68 in 10.0 mi Calm Calm - N/A   Clear
3:53 AM 26.1 °F - 15.1 °F 63% 29.66 in 10.0 mi Calm Calm - N/A   Clear
4:53 AM 27.0 °F - 16.0 °F 63% 29.66 in 10.0 mi Calm Calm - N/A   Clear
5:53 AM 36.0 °F 29.6 °F 18.0 °F 48% 29.66 in 10.0 mi NW 8.1 mph - N/A   Clear
6:53 AM 30.9 °F 23.5 °F 17.1 °F 57% 29.68 in 10.0 mi NNW 8.1 mph - N/A   Clear
7:53 AM 30.9 °F 25.2 °F 17.1 °F 57% 29.69 in 10.0 mi NNW 5.8 mph - N/A   Clear
8:53 AM 39.0 °F 34.8 °F 25.0 °F 57% 29.68 in 10.0 mi North 5.8 mph - N/A   Clear
9:53 AM 48.9 °F - 23.0 °F 36% 29.69 in 10.0 mi North 8.1 mph - N/A   Clear
10:53 AM 60.1 °F - 19.0 °F 20% 29.68 in 10.0 mi WNW 20.7 mph 28.8 mph N/A   Clear
11:53 AM 62.1 °F - 18.0 °F 18% 29.69 in 10.0 mi NW 25.3 mph 32.2 mph N/A   Clear
12:53 PM 60.1 °F - 21.0 °F 22% 29.72 in 10.0 mi NW 26.5 mph 38.0 mph N/A   Clear
1:53 PM 60.1 °F - 21.0 °F 22% 29.75 in 10.0 mi NW 28.8 mph 36.8 mph N/A   Clear
2:53 PM 57.0 °F - 25.0 °F 29% 29.79 in 10.0 mi NNW 31.1 mph 39.1 mph N/A   Clear
3:53 PM 55.0 °F - 25.0 °F 31% 29.83 in 10.0 mi NW 21.9 mph 32.2 mph N/A   Clear
4:53 PM 54.0 °F - 23.0 °F 30% 29.86 in 10.0 mi NW 23.0 mph 31.1 mph N/A   Clear
5:53 PM 48.9 °F - 17.1 °F 28% 29.90 in 10.0 mi NW 13.8 mph - N/A   Scattered Clouds
6:53 PM 44.1 °F 38.1 °F 18.0 °F 35% 29.95 in 10.0 mi NNW 11.5 mph - N/A   Partly Cloudy
7:53 PM 34.0 °F 27.2 °F 16.0 °F 48% 30.00 in 10.0 mi NW 8.1 mph - N/A   Clear
8:53 PM 30.9 °F 23.5 °F 16.0 °F 54% 30.02 in 10.0 mi WNW 8.1 mph - N/A   Clear
9:53 PM 30.9 °F 24.3 °F 18.0 °F 59% 30.02 in 10.0 mi NW 6.9 mph - N/A   Clear
10:53 PM 26.1 °F 19.4 °F 15.1 °F 63% 30.00 in 10.0 mi NNW 5.8 mph - N/A   Clear
11:53 PM 21.9 °F 11.7 °F 14.0 °F 72% 30.00 in 10.0 mi SW 9.2 mph - N/A   Clear